This is the latest recevied weather packets stored in our database for station/object KD5UMO-1. If no packets are shown the sender has not sent any weather packets the latest 10 day(s).
| Time | Temp. | Humidity | Pressure | Rain* | Wind** | Luminosity | Snow |
|---|---|---|---|---|---|---|---|
| 1777598958 | 16.67° C | 75% | 1014.6 hPa | 0 mm | - | 0 W/m² | - |
| 1777598656 | 16.67° C | 75% | 1014.8 hPa | 0 mm | - | 0 W/m² | - |
| 1777598351 | 16.67° C | 75% | 1014.7 hPa | 0 mm | - | 0 W/m² | - |
| 1777598050 | 16.67° C | 75% | 1014.5 hPa | 0 mm | - | 1 W/m² | - |
| 1777597749 | 16.67° C | 74% | 1014.6 hPa | 0 mm | - | 1 W/m² | - |
| 1777597444 | 16.67° C | 74% | 1014.5 hPa | 0 mm | - | 2 W/m² | - |
| 1777597140 | 16.67° C | 74% | 1014.7 hPa | 0 mm | - | 3 W/m² | - |
| 1777596836 | 16.67° C | 73% | 1014.9 hPa | 0 mm | - | 2 W/m² | - |
| 1777596532 | 16.67° C | 74% | 1014.8 hPa | 0 mm | - | 3 W/m² | - |
| 1777596230 | 16.67° C | 74% | 1014.5 hPa | 0 mm | - | 3 W/m² | - |
| 1777595927 | 16.67° C | 74% | 1014.6 hPa | 0 mm | - | 4 W/m² | - |
| 1777595621 | 16.67° C | 74% | 1014.8 hPa | 0 mm | - | 6 W/m² | - |
| 1777595317 | 16.67° C | 73% | 1014.7 hPa | 0 mm | - | 7 W/m² | - |
| 1777595014 | 16.67° C | 72% | 1014.8 hPa | 0 mm | - | 11 W/m² | - |
| 1777594711 | 16.67° C | 72% | 1014.7 hPa | 0 mm | - | 6 W/m² | - |
| 1777594407 | 16.67° C | 72% | 1014.3 hPa | 0 mm | - | 10 W/m² | - |
| 1777594103 | 16.67° C | 72% | 1014.3 hPa | 0 mm | - | 15 W/m² | - |
| 1777593799 | 16.67° C | 72% | 1013.8 hPa | 0 mm | - | 22 W/m² | - |
| 1777593495 | 16.67° C | 72% | 1013.8 hPa | 0 mm | - | 20 W/m² | - |
| 1777593195 | 16.67° C | 72% | 1013.4 hPa | 0 mm | - | 36 W/m² | - |
| 1777592894 | 16.67° C | 72% | 1013.4 hPa | 0 mm | - | 29 W/m² | - |
| 1777592590 | 16.67° C | 72% | 1013.4 hPa | 0 mm | - | 46 W/m² | - |
| 1777592286 | 16.67° C | 72% | 1013.6 hPa | 0 mm | - | 62 W/m² | - |
| 1777591982 | 16.67° C | 72% | 1013.7 hPa | 0 mm | - | 83 W/m² | - |
| 1777591678 | 16.67° C | 72% | 1013.7 hPa | 0 mm | - | 70 W/m² | - |
* Rain latest hour (hover to see other rain measurements)
** Current wind speed in m/s (hover to see current wind gust speed)